Weather observations for the past three days for
Rochester Fulton County Airport
Imperial (Metric)
Date Time (edt) Wind (mph) Vis. (mi.) Weather Sky Cond. Temperature (ºF) Relative Humidity Wind Chill (°F) Heat Index (°F) Pressure Precipitation (in)
Air Dwpt 6 hour altimeter (in) sea level (mb) 1 hr 3 hr 6 hr
Max. Min.
18 05:55 S 7 G 14 10.00 Mostly Cloudy SCT055 BKN120 78.8 69.8 74% 81 30.05 0.0
18 05:35 S 7 G 15 10.00 Mostly Cloudy SCT055 BKN120 78.8 69.8 74% 81 30.04 0.0
18 05:15 S 8 10.00 A Few Clouds FEW060 FEW120 78.8 69.8 74% 81 30.03 0.0
18 04:55 S 8 10.00 Fair CLR 78.8 71.6 79% 82 30.04 0.0
18 04:35 S 7 9.00 A Few Clouds FEW075 FEW090 78.8 73.4 84% 82 30.04 0.0
18 04:15 S 7 10.00 Partly Cloudy FEW070 SCT080 SCT090 78.8 73.4 84% 82 30.03 0.0
18 03:55 S 6 10.00 A Few Clouds FEW050 FEW110 78.8 71.6 79% 82 30.03 0.0
18 03:35 S 8 G 14 10.00 Partly Cloudy FEW043 FEW055 SCT100 78.8 71.6 79% 82 30.04 0.0
18 03:15 S 9 10.00 A Few Clouds FEW065 FEW100 80.6 69.8 70% 84 30.04 0.0
18 02:55 S 8 10.00 Fair CLR 80.6 69.8 70% 84 30.05 0.0
18 02:15 SW 7 10.00 Fair CLR 80.6 69.8 70% 84 30.04 0.0
18 01:55 SW 7 10.00 Fair CLR 80.6 71.6 74% 85 30.04 0.0
18 01:35 SW 8 10.00 Fair CLR 82.4 71.6 70% 87 30.04 0.0
18 01:15 SW 9 G 16 10.00 Fair CLR 82.4 71.6 70% 87 30.04 0.0
18 00:55 S 9 10.00 Fair CLR 82.4 71.6 70% 87 30.03 0.0
18 00:35 S 8 10.00 Fair CLR 82.4 71.6 70% 87 30.03 0.0
18 00:15 S 12 10.00 Fair CLR 84.2 71.6 66% 90 30.02 0.0
17 23:55 S 6 10.00 Fair CLR 84.2 71.6 66% 90 30.01 0.0
17 23:35 S 8 G 14 10.00 Fair CLR 84.2 71.6 66% 90 30.01 0.0
17 23:15 S 9 10.00 Fair CLR 84.2 71.6 66% 90 30 0.0
17 22:55 S 8 10.00 Fair CLR 84.2 71.6 66% 90 30 0.0
17 22:35 S 7 9.00 Fair CLR 84.2 71.6 66% 90 29.99 0.0
17 22:15 S 6 9.00 Fair CLR 84.2 71.6 66% 90 29.99 0.0
17 21:35 Calm 10.00 Fair CLR 86 69.8 59% 91 29.98 0.0
17 21:15 S 7 10.00 Fair CLR 87.8 69.8 55% 93 29.97 0.0
17 20:55 S 8 10.00 Fair CLR 87.8 69.8 55% 93 29.97 0.0
17 20:35 S 7 10.00 Fair CLR 89.6 69.8 52% 95 29.97 0.0
17 20:15 SW 8 10.00 Fair CLR 89.6 69.8 52% 95 29.96 0.0
17 19:55 SW 12 10.00 Fair CLR 91.4 68 46% 96 29.95 0.0
17 19:35 S 12 G 20 10.00 A Few Clouds FEW065 FEW075 91.4 68 46% 96 29.96 0.0
17 19:15 S 10 G 20 10.00 Mostly Cloudy SCT060 BKN070 91.4 68 46% 96 29.95 0.0
17 18:55 S 14 10.00 Partly Cloudy SCT055 93.2 71.6 50% 101 29.94 0.0
17 18:35 S 10 10.00 A Few Clouds FEW060 93.2 69.8 47% 99 29.94 0.0
17 18:15 S 13 10.00 Fair CLR 93.2 69.8 47% 99 29.94 0.0
17 17:55 SW 10 G 17 10.00 Fair CLR 93.2 69.8 47% 99 29.94 0.0
17 17:35 SW 12 G 20 10.00 Fair CLR 93.2 69.8 47% 99 29.95 0.0
17 17:15 SW 10 10.00 A Few Clouds FEW060 95 71.6 47% 103 29.95 0.0
17 16:55 SW 13 G 20 10.00 A Few Clouds FEW060 FEW075 FEW090 95 69.8 44% 101 29.96 0.0
17 16:35 SW 12 10.00 Partly Cloudy FEW060 FEW065 SCT090 93.2 69.8 47% 99 29.97 0.0
17 16:15 SW 10 G 17 10.00 Partly Cloudy FEW060 SCT070 93.2 69.8 47% 99 29.97 0.0
17 15:55 SW 9 9.00 Partly Cloudy SCT060 SCT075 SCT085 95 71.6 47% 103 29.98 0.0
17 15:35 Vrbl 6 G 17 10.00 Fair CLR 93.2 69.8 47% 99 29.99 0.0
17 15:15 SW 15 G 21 0.25 Light Rain Haze BKN055 93.2 69.8 47% 99 29.99 0.0
17 14:55 S 10 G 18 1.00 Light Rain Haze SCT055 93.2 71.6 50% 101 29.98 0.0
17 14:35 SW 13 0.25 Light Rain Haze VV002 93.2 71.6 50% 101 29.99 0.0
17 14:15 SW 8 G 17 0.50 Light Rain Haze VV005 93.2 73.4 53% 103 30 0.0
17 13:55 SW 15 0.15 Light Rain Haze BKN049 BKN070 BKN085 93.2 71.6 50% 101 30.01 0.0
17 13:35 SW 13 8.00 Partly Cloudy FEW050 FEW070 SCT085 91.4 73.4 56% 100 30.01 0.0
17 13:15 SW 16 7.00 A Few Clouds FEW046 FEW060 FEW070 91.4 73.4 56% 100 30.02 0.0
17 12:55 SW 12 7.00 Partly Cloudy SCT045 SCT060 SCT070 91.4 75.2 59% 103 30.03 0.0
17 12:35 SW 13 G 20 7.00 A Few Clouds FEW043 FEW065 91.4 75.2 59% 103 30.03 0.0
17 12:15 SW 10 7.00 Fair CLR 89.6 75.2 63% 100 30.03 0.0
17 11:55 W 9 G 17 5.00 Unknown Precip Haze CLR 89.6 77 67% 103 30.03 0.0
17 11:35 S 10 5.00 Fair with Haze CLR 89.6 77 67% 103 30.04 0.0
17 11:15 W 10 8.00 Fair CLR 87.8 77 70% 100 30.04 0.0
17 10:55 SW 9 G 15 6.00 Fair with Haze CLR 86 77 75% 97 30.04 0.0
17 10:35 SW 10 8.00 Fair CLR 86 77 75% 97 30.05 0.0
17 10:15 SW 8 7.00 Fair CLR 86 78.8 79% 99 30.05 0.0
17 09:55 SW 12 7.00 Fair CLR 84.2 78.8 84% 96 30.04 0.0
17 09:35 SW 12 6.00 Fair with Haze CLR 84.2 78.8 84% 96 30.04 0.0
17 09:15 SW 9 G 15 6.00 Fog/Mist CLR 82.4 78.8 89% 92 30.04 0.0
17 08:55 SW 9 5.00 Fog/Mist CLR 80.6 78.8 94% 88 30.03 0.0
17 08:35 SW 8 5.00 Fog/Mist CLR 80.6 77 89% 87 30.02 0.0
17 08:15 S 9 5.00 Fog/Mist CLR 78.8 77 94% 83 30.02 0.0
17 07:55 S 7 4.00 Fog/Mist CLR 78.8 77 94% 83 30.01 0.0
17 07:35 S 6 5.00 Fog/Mist CLR 77 77 100% 78 30 0.0
17 07:15 S 5 5.00 Fog/Mist CLR 77 77 100% 78 29.99 0.0
17 06:55 Calm 5.00 Fog/Mist CLR 77 77 100% 78 29.99 0.0
17 06:35 Calm 5.00 Fog/Mist CLR 77 77 100% 78 29.98 0.0
17 06:15 S 5 5.00 Fog/Mist CLR 77 77 100% 78 29.98 0.0
17 05:55 SW 6 7.00 Fair CLR 77 77 100% 78 29.97 0.0
17 05:35 Calm 7.00 Fair CLR 77 75.2 94% 78 29.97 0.0
17 05:15 S 8 7.00 Fair CLR 78.8 75.2 89% 82 29.96 0.0
17 04:55 S 9 7.00 Fair CLR 78.8 75.2 89% 82 29.96 0.0
17 04:35 SW 8 7.00 Fair CLR 78.8 75.2 89% 82 29.96 0.0
17 04:15 SW 9 9.00 Fair CLR 78.8 75.2 89% 82 29.95 0.0
17 03:35 S 7 10.00 Fair CLR 80.6 73.4 79% 85 29.96 0.0
17 03:15 S 7 10.00 Fair CLR 80.6 73.4 79% 85 29.96 0.0
17 02:55 S 7 10.00 Fair CLR 80.6 73.4 79% 85 29.96 0.0
17 02:35 SW 8 10.00 Fair CLR 82.4 73.4 74% 88 29.96 0.0
17 02:15 SW 7 10.00 Fair CLR 82.4 73.4 74% 88 29.96 0.0
17 01:55 SW 8 10.00 Fair CLR 82.4 73.4 74% 88 29.96 0.0
17 01:35 SW 13 10.00 Fair CLR 82.4 73.4 74% 88 29.96 0.0
17 01:15 SW 9 10.00 Fair CLR 82.4 71.6 70% 87 29.95 0.0
17 00:55 S 9 G 16 10.00 Fair CLR 82.4 71.6 70% 87 29.95 0.0
17 00:35 S 10 G 16 10.00 A Few Clouds FEW070 82.4 71.6 70% 87 29.95 0.0
17 00:15 S 12 10.00 A Few Clouds FEW070 84.2 71.6 66% 90 29.95 0.0
16 23:55 S 10 10.00 Partly Cloudy SCT070 82.4 71.6 70% 87 29.95 0.0
16 23:35 S 8 10.00 Partly Cloudy SCT070 84.2 71.6 66% 90 29.94 0.0
16 23:15 S 9 10.00 Fair CLR 84.2 71.6 66% 90 29.94 0.0
16 22:55 S 9 10.00 Fair CLR 84.2 71.6 66% 90 29.93 0.0
16 22:35 S 10 G 16 10.00 Fair CLR 84.2 71.6 66% 90 29.93 0.0
16 22:15 S 10 10.00 Fair CLR 84.2 71.6 66% 90 29.92 0.0
16 21:55 S 8 10.00 Fair CLR 84.2 71.6 66% 90 29.91 0.0
16 21:35 S 6 10.00 Fair CLR 84.2 71.6 66% 90 29.91 0.0
16 21:15 S 7 10.00 Fair CLR 86 69.8 59% 91 29.91 0.0
16 20:55 S 8 10.00 Fair CLR 86 69.8 59% 91 29.91 0.0
16 20:35 S 9 10.00 Fair CLR 87.8 69.8 55% 93 29.91 0.0
16 20:15 SW 12 10.00 Fair CLR 89.6 69.8 52% 95 29.91 0.0
16 19:55 S 12 G 20 10.00 Fair CLR 89.6 69.8 52% 95 29.9 0.0
16 19:35 SW 10 G 20 10.00 A Few Clouds FEW055 FEW065 89.6 69.8 52% 95 29.91 0.0
16 19:15 SW 13 G 20 10.00 Mostly Cloudy SCT060 BKN070 89.6 69.8 52% 95 29.91 0.0
16 18:55 S 12 G 20 10.00 Partly Cloudy FEW055 SCT070 89.6 69.8 52% 95 29.91 0.0
16 18:35 S 14 10.00 Partly Cloudy SCT055 91.4 69.8 49% 97 29.9 0.0
16 18:15 S 12 G 18 10.00 Partly Cloudy SCT055 89.6 69.8 52% 95 29.9 0.0
16 17:55 S 12 G 20 10.00 A Few Clouds FEW055 91.4 69.8 49% 97 29.9 0.0
16 17:35 S 12 G 18 10.00 Partly Cloudy FEW055 SCT065 91.4 69.8 49% 97 29.9 0.0
16 17:15 S 12 G 18 10.00 A Few Clouds FEW055 91.4 68 46% 96 29.9 0.0
16 16:55 S 12 G 17 10.00 A Few Clouds FEW055 91.4 69.8 49% 97 29.91 0.0
16 16:35 S 12 G 21 10.00 Partly Cloudy SCT055 89.6 68 49% 93 29.92 0.0
16 16:15 S 12 G 20 10.00 A Few Clouds FEW055 89.6 68 49% 93 29.93 0.0
16 15:55 S 13 G 20 10.00 A Few Clouds FEW055 89.6 66.2 46% 92 29.93 0.0
16 15:35 S 14 10.00 Fair CLR 89.6 66.2 46% 92 29.94 0.0
16 15:15 S 13 G 18 10.00 Fair CLR 89.6 66.2 46% 92 29.95 0.0
16 14:55 S 15 G 22 10.00 Fair CLR 89.6 66.2 46% 92 29.95 0.0
16 14:35 S 10 G 17 10.00 A Few Clouds FEW046 87.8 64.4 46% 89 29.96 0.0
16 14:15 S 10 G 17 10.00 Mostly Cloudy BKN046 87.8 64.4 46% 89 29.97 0.0
16 13:55 S 10 10.00 Partly Cloudy SCT045 87.8 64.4 46% 89 29.98 0.0
16 13:35 S 9 G 20 10.00 A Few Clouds FEW048 FEW060 86 62.6 46% 87 29.99 0.0
16 13:15 S 8 G 15 10.00 Mostly Cloudy FEW048 BKN055 86 62.6 46% 87 30 0.0
16 12:55 S 13 10.00 Partly Cloudy SCT055 86 60.8 43% 86 30 0.0
16 12:35 S 12 10.00 A Few Clouds FEW060 84.2 60.8 45% 84 30.01 0.0
16 12:15 S 10 10.00 Partly Cloudy SCT060 84.2 59 43% 84 30.01 0.0
16 11:55 S 13 10.00 Fair CLR 84.2 59 43% 84 30.01 0.0
16 11:35 S 10 G 17 10.00 Fair CLR 82.4 57.2 42% 82 30.02 0.0
16 11:15 S 13 10.00 Fair CLR 80.6 57.2 45% 81 30.02 0.0
16 10:55 SE 12 10.00 Fair CLR 78.8 57.2 48% 80 30.02 0.0
16 10:35 SE 10 9.00 Light Rain CLR 78.8 55.4 45% 79 30.03 0.0
16 10:15 SE 12 10.00 Fair CLR 77 55.4 47% 79 30.04 0.0
16 09:55 SE 12 10.00 Fair CLR 75.2 57.2 54% 78 30.05 0.0
16 09:35 SE 10 10.00 Fair CLR 75.2 55.4 50% 78 30.05 0.0
16 09:15 S 10 10.00 Fair CLR 73.4 55.4 53% 30.05 0.0
16 08:55 SE 10 G 17 10.00 Fair CLR 71.6 55.4 57% 30.05 0.0
16 08:35 SE 9 10.00 Fair CLR 69.8 55.4 60% 30.06 0.0
16 08:15 SE 9 10.00 Fair CLR 68 55.4 64% 30.06 0.0
16 07:55 SE 8 10.00 Fair CLR 66.2 55.4 68% 30.05 0.0
16 07:35 SE 8 10.00 Fair CLR 66.2 53.6 64% 30.06 0.0
16 07:15 SE 7 10.00 Fair CLR 64.4 53.6 68% 30.05 0.0
16 06:55 NE 7 10.00 Fair CLR 62.6 53.6 73% 30.05 0.0
16 06:35 NE 6 10.00 Fair CLR 62.6 51.8 68% 30.04 0.0
16 06:15 SE 8 10.00 Fair CLR 62.6 53.6 73% 30.04 0.0
16 05:55 E 7 10.00 Fair CLR 62.6 51.8 68% 30.04 0.0
16 05:35 SE 7 10.00 Fair CLR 64.4 51.8 64% 30.04 0.0
16 05:15 SE 8 10.00 Fair CLR 64.4 51.8 64% 30.04 0.0
16 04:55 SE 7 10.00 Fair CLR 64.4 51.8 64% 30.04 0.0
16 04:35 SE 7 10.00 Fair CLR 64.4 51.8 64% 30.04 0.0
16 04:15 SE 6 10.00 Fair CLR 66.2 51.8 60% 30.05 0.0
16 03:55 E 8 10.00 Fair CLR 66.2 51.8 60% 30.04 0.0
16 03:35 SE 8 10.00 Fair CLR 66.2 50 56% 30.05 0.0
16 03:15 E 9 10.00 Fair CLR 66.2 50 56% 30.05 0.0
16 02:55 E 7 10.00 Fair CLR 64.4 51.8 64% 30.06 0.0
16 02:35 E 7 10.00 Fair CLR 66.2 51.8 60% 30.06 0.0
16 02:15 E 5 10.00 Fair CLR 64.4 51.8 64% 30.06 0.0
16 01:55 E 7 10.00 Fair CLR 66.2 51.8 60% 30.06 0.0
16 01:35 E 8 10.00 Fair CLR 66.2 51.8 60% 30.06 0.0
16 01:15 Calm 10.00 Fair CLR 66.2 53.6 64% 30.06 0.0
16 00:55 E 6 10.00 Fair CLR 68 51.8 56% 30.06 0.0
16 00:35 E 6 10.00 Fair CLR 66.2 55.4 68% 30.06 0.0
16 00:15 E 6 10.00 Fair CLR 69.8 53.6 57% 30.06 0.0
15 23:55 SE 3 10.00 Fair CLR 71.6 53.6 53% 30.05 0.0
15 23:35 Calm 10.00 Fair CLR 71.6 53.6 53% 30.04 0.0
15 23:15 SE 6 10.00 Fair CLR 73.4 53.6 50% 30.05 0.0
15 22:55 SE 7 9.00 Fair CLR 71.6 51.8 50% 30.04 0.0
15 22:35 E 7 10.00 Fair CLR 75.2 51.8 44% 78 30.04 0.0
15 22:15 E 7 10.00 Fair CLR 75.2 53.6 47% 78 30.04 0.0
15 21:55 SE 6 10.00 Fair CLR 75.2 53.6 47% 78 30.04 0.0
15 21:35 E 9 10.00 Fair CLR 77 53.6 44% 78 30.03 0.0
15 21:15 E 8 10.00 Fair CLR 77 53.6 44% 78 30.04 0.0
15 20:55 E 7 10.00 Fair CLR 77 57.2 51% 79 30.05 0.0
15 20:35 E 3 10.00 Fair CLR 77 62.6 61% 79 30.06 0.0
15 20:15 Calm 10.00 Fair CLR 78.8 57.2 48% 80 30.07 0.0
15 19:55 Calm 10.00 Fair CLR 80.6 55.4 42% 81 30.07 0.0
15 19:35 Calm 10.00 Fair CLR 80.6 55.4 42% 81 30.07 0.0
15 19:15 Calm 10.00 Fair CLR 80.6 55.4 42% 81 30.07 0.0
15 18:55 SE 3 10.00 Fair CLR 82.4 53.6 37% 81 30.08 0.0
15 18:35 S 6 G 12 10.00 Fair CLR 82.4 53.6 37% 81 30.08 0.0
15 18:15 S 7 10.00 Fair CLR 82.4 53.6 37% 81 30.08 0.0
15 17:55 S 6 10.00 Fair CLR 82.4 53.6 37% 81 30.09 0.0
15 17:35 SE 8 10.00 Fair CLR 82.4 55.4 40% 82 30.09 0.0
15 17:15 SE 6 10.00 Fair CLR 82.4 53.6 37% 81 30.09 0.0
15 16:55 SE 8 10.00 Fair CLR 82.4 53.6 37% 81 30.09 0.0
15 16:35 SE 10 10.00 Fair CLR 82.4 51.8 35% 81 30.09 0.0
15 16:15 S 12 10.00 Fair CLR 82.4 53.6 37% 81 30.1 0.0
15 15:55 SE 9 10.00 Fair CLR 82.4 53.6 37% 81 30.11 0.0
15 15:35 S 8 G 15 10.00 Fair CLR 82.4 53.6 37% 81 30.12 0.0
15 15:15 SE 7 G 13 10.00 Fair CLR 82.4 53.6 37% 81 30.12 0.0
15 14:55 S 8 10.00 Fair CLR 82.4 53.6 37% 81 30.12 0.0
15 14:35 SE 8 10.00 Fair CLR 80.6 53.6 39% 80 30.12 0.0
15 14:15 S 7 10.00 Fair CLR 80.6 51.8 37% 80 30.13 0.0
15 13:55 SE 10 10.00 Fair CLR 80.6 53.6 39% 80 30.13 0.0
15 13:35 E 12 10.00 Fair CLR 80.6 51.8 37% 80 30.13 0.0
15 13:15 SE 9 10.00 Fair CLR 80.6 53.6 39% 80 30.14 0.0
15 12:55 SE 8 G 15 9.00 Fair CLR 78.8 51.8 39% 79 30.14 0.0
15 12:35 SE 13 10.00 Fair CLR 78.8 51.8 39% 79 30.14 0.0
15 12:15 E 12 10.00 Fair CLR 78.8 51.8 39% 79 30.14 0.0
15 11:55 SE 12 10.00 Fair CLR 77 51.8 42% 78 30.15 0.0
15 11:35 SE 13 10.00 Fair CLR 77 51.8 42% 78 30.15 0.0
15 11:15 SE 13 G 18 10.00 Fair CLR 75.2 51.8 44% 78 30.15 0.0
15 10:55 E 16 10.00 Fair CLR 75.2 51.8 44% 78 30.15 0.0
15 10:35 SE 13 10.00 Fair CLR 73.4 51.8 47% 30.15 0.0
15 10:15 E 13 10.00 Fair CLR 71.6 51.8 50% 30.15 0.0
15 09:55 SE 12 10.00 Fair CLR 71.6 53.6 53% 30.17 0.0
15 09:35 SE 12 G 17 10.00 Fair CLR 68 53.6 60% 30.17 0.0
15 09:15 SE 9 G 15 10.00 Fair CLR 68 55.4 64% 30.17 0.0
15 08:55 SE 7 G 13 10.00 Fair CLR 68 57.2 69% 30.17 0.0
15 08:35 E 9 10.00 Fair CLR 68 57.2 69% 30.17 0.0
15 08:15 E 8 G 15 10.00 Fair CLR 66.2 57.2 73% 30.15 0.0
15 07:55 E 7 10.00 Fair CLR 64.4 60.8 88% 30.14 0.0
15 07:35 E 8 10.00 Fair CLR 62.6 62.6 100% 30.14 0.0
15 07:15 Calm 10.00 Fair CLR 60.8 60.8 100% 30.13 0.0
15 06:55 Calm 10.00 Fair CLR 60.8 60.8 100% 30.12 0.0
15 06:35 Calm 10.00 Fair CLR 60.8 60.8 100% 30.12 0.0
15 06:15 E 6 10.00 Fair CLR 60.8 60.8 100% 30.12 0.0
Date Time (edt) Wind (mph) Vis. (mi.) Weather Sky Cond. Air Dwpt Max. Min. Relative Humidity Wind Chill (°F) Heat Index (°F) altimeter (in) sea level (mb) 1 hr 3 hr 6 hr
6 hour
Temperature (ºF) Pressure Precipitation (in)